Flag for Iran Weather past 2 weeks in Bandar-Abbas, Iran

Now
100 °F

Haze.


Feels Like: 106 °F
Forecast: 85 / 106 °F
Wind: 12 mph from Southwest

Location: Bandarabbass

Current Time: Jul 5, 2015 at 8:39:15 PM

Latest Report: Jul 5, 2015 at 8:00 PM


Visibility: 2 mi

Pressure: 29.45 "Hg

Humidity: 35%

Dew point: 68 °F

Location of Bandar-AbbasLocation

Historic Weather in Bandar-Abbas — Graph

°F

Bandar-Abbas temperature yesterday

Maximum temperature yesterday: 100 °F (at 11:00 AM)
Minimum temperature yesterday: 90 °F (at 3:30 AM)
Average temperature yesterday: 95 °F

Past Weeks' High & Low Weather Summary

 TemperatureHumidityPressure
High104 °F (Jun 22, 3:00 PM)89% (Jun 22, 11:30 PM)29.62 "Hg (Jun 22, 11:30 PM)
Low82 °F (Jun 30, 4:30 AM)21% (Jul 2, 3:30 PM)29.30 "Hg (Jun 21, 5:30 PM)
Average94 °F63%29.46 "Hg
* Reported Jun 20 7:30 PM — Jul 5 7:30 PM, Bandar-Abbas, Weather by CustomWeather, © 2015

Note: Actual official high and low records may vary slightly from our data, if they occured in-between our weather recording intervals... More about our weather records

Advertising

Bandar-Abbas weather history for previous 24 hours

 ConditionsComfort  
Time TempWeatherWind HumidityBarometerVisibility
7:30 PM
Sun, Jul 5
100 °FHaze.12 mph35%29.45 "Hg2 mi
7:00 PM100 °FHaze.14 mph37%29.45 "Hg2 mi
6:30 PM99 °FHaze.14 mph50%29.45 "Hg2 mi
6:00 PM102 °FSandstorm.14 mph42%29.45 "Hg2 mi
5:30 PM102 °FSandstorm.14 mph42%29.45 "Hg2 mi
5:00 PM102 °FSandstorm.16 mph45%29.45 "Hg2 mi
4:30 PM102 °FSandstorm.16 mph45%29.45 "Hg2 mi
4:00 PM100 °FSandstorm.16 mph47%29.47 "Hg2 mi
3:30 PM100 °FSandstorm.16 mph47%29.47 "Hg2 mi
3:00 PM100 °FSandstorm.16 mph50%29.47 "Hg2 mi
2:30 PM100 °FSandstorm.16 mph50%29.47 "Hg2 mi
2:00 PM100 °FSandstorm.18 mph45%29.50 "Hg3 mi
1:30 PM100 °FHaze.18 mph42%29.50 "Hg3 mi
1:00 PM100 °FHaze.14 mph47%29.50 "Hg3 mi
12:30 PM100 °FHaze.9 mph50%29.50 "Hg3 mi
12:00 PM100 °FHaze.9 mph42%29.53 "Hg3 mi
11:30 AM100 °FHaze.7 mph45%29.53 "Hg3 mi
11:00 AM100 °FHaze.9 mph42%29.53 "Hg3 mi
10:30 AM100 °FSunny.7 mph42%29.53 "Hg3 mi
9:55 AM100 °FHaze.7 mph42%29.53 "Hg2 mi
9:30 AM99 °FHaze.5 mph42%29.53 "Hg2 mi
8:00 AM91 °FHaze.No wind59%29.53 "Hg2 mi
7:30 AM86 °FHaze.No wind70%29.53 "Hg2 mi
7:00 AM84 °FHaze.No wind74%29.53 "Hg2 mi
6:30 AM84 °FHaze.No wind70%29.50 "Hg2 mi
5:30 AM86 °FHaze.No wind70%29.50 "Hg2 mi
4:30 AM84 °FHaze.No wind74%29.50 "Hg2 mi
3:30 AM97 °FHaze.No wind42%29.50 "Hg2 mi
2:30 AM88 °FHaze.No wind70%29.50 "Hg2 mi
2:00 AM88 °FHaze.5 mph70%29.53 "Hg2 mi
1:30 AM88 °FHaze.5 mph70%29.53 "Hg2 mi
1:00 AM88 °FHaze.5 mph70%29.53 "Hg2 mi
12:30 AM90 °FHaze.7 mph71%29.53 "Hg2 mi
12:00 AM90 °FHaze.5 mph71%29.53 "Hg2 mi
11:30 PM
Sat, Jul 4
91 °FHaze.5 mph67%29.53 "Hg2 mi
11:00 PM91 °FHaze.7 mph67%29.53 "Hg2 mi
10:30 PM91 °FHaze.7 mph67%29.53 "Hg2 mi
10:00 PM93 °FHaze.7 mph67%29.53 "Hg2 mi
9:30 PM93 °FHaze.7 mph67%29.50 "Hg2 mi
9:00 PM93 °FHaze.5 mph63%29.50 "Hg2 mi
8:30 PM93 °FHaze.9 mph67%29.50 "Hg2 mi
8:00 PM93 °FHaze.9 mph67%29.50 "Hg2 mi
Weather by CustomWeather, © 2015

See weather overviewHow to use our weather pages